Location: Allie Creek
(37.5926°N, 89.8526°W)
Time: 15:09:56
(UTC+00:00)

Meteor 1-27 Rocket - Pass Details

Date: 22 April 2024
Orbit: 829 x 909 km, 81.3° (Epoch: 26 May)

Event Time Altitude Azimuth Distance (km) Brightness Sun altitude
Exits shadow 07:14:48 31° 55° (NE) 1,480 5.3 -36.9°
Drops below altitude 10° 07:18:14 10° 26° (NNE) 2,493 6.9 -36.6°
Sets 07:20:47 0° 18° (NNE) 3,421 7.8 -36.4°
